sat.trackr.live / text

‹ back to catalog

ONEWEB-0278

NORAD 48996 · 2021-060AF

PAYLOAD ACTIVE UNKNOWN

§ Identity

Operator
Country
UK
Launch date
2021-07-01
Launch site
VOSTO
Launch vehicle
Mass (kg)
RCS (m²)

Purposes: comms

External: N2YO · Heavens-Above · Gunter

§ Orbital elements

Epoch: 2026-09-18T06:52:00.791328Z

Period
109.37 min
Inclination
87.9150°
Eccentricity
0.0001869
Mean motion
13.16593584 rev/d
Perigee alt
1,196.3 km
Apogee alt
1,199.2 km
Semi-major
7,575.9 km
B*
-1.1856e-4
RAAN
210.2903°
Arg perigee
82.2237°
Mean anomaly
277.9106°
Rev number
25,194

§ Raw data

ONEWEB-02781 48996U 21060AF  26261.28612027 -.00000032  00000+0 -11856-3 0  99902 48996  87.9150 210.2903 0001869  82.2237 277.9106 13.16593584251941

JSON: /api/v1/satellites/48996 · /tle

For live sub-satellite position, see the globe view (requires WebGL).

§ Visibility from observer

Set your observer location to see the next 7 days of passes ≥ 10°. The values pass through the URL so the page stays shareable.

No JS? Fill the form by hand. The geolocation button needs JavaScript.